Dewpoint
33 29 29 27 24 21 19 19 18 15 23 20 15 18 16 14 19 21 21 29 37 37 39 41 42 43 44 44 46 49 51 53 53 54 56 59 60 61 62 62 62 63 62 63 63 64 64 64 66 66 67 67 67 69 70 71 71 71 70 71 70 70 70 71 72 71 69 69 69 66 65 63 64 67 67 66 66 66 66 71 72 74 73 75 75 75
28 25 26 25 22 22 22 22 22 18 18 22 19 18 18 21 21 21 19 24 34 35 38 41 41 42 44 45 45 48 49 50 51 53 56 58 59 61 62 62 63 63 63 63 64 64 65 65 65 65 66 67 67 68 69 70 71 72 70 71 71 70 70 70 70 70 68 70 67 65 64 61 61 65 65 65 66 64 65 72 74 74 73 75 75 75
24 20 20 23 22 22 23 22 21 19 17 20 18 16 14 14 18 20 22 27 29 30 34 38 39 40 42 43 44 44 47 50 50 52 55 59 60 61 62 62 63 63 64 63 63 64 64 64 65 66 66 66 66 67 68 70 71 71 71 72 72 71 70 69 70 70 69 69 69 65 64 62 60 64 65 62 63 65 64 69 73 74 74 75 75 76
22 20 19 20 20 20 20 21 21 21 20 21 14 15 15 15 14 16 21 30 31 29 30 36 36 37 40 43 43 43 45 50 51 51 54 57 60 60 61 62 63 63 64 63 64 63 63 64 65 66 66 66 66 67 68 69 70 71 72 72 73 72 71 71 70 71 70 70 71 70 68 66 64 65 66 66 65 66 66 67 71 73 75 75 74 74
18 17 18 19 19 19 20 23 22 21 18 16 14 12 13 18 20 21 21 24 26 28 29 31 34 36 38 38 40 42 44 48 50 50 53 56 58 60 61 62 63 63 64 64 64 64 64 65 65 66 67 66 65 66 67 68 68 68 70 72 73 73 72 72 72 72 71 71 72 71 71 70 68 69 67 67 65 67 67 66 70 72 74 75 73 74
17 17 22 19 18 20 20 17 16 15 14 14 15 14 13 16 19 25 24 28 25 24 26 27 31 34 37 37 37 39 41 45 48 51 52 56 58 60 60 61 63 63 64 65 64 64 64 65 66 67 67 66 66 66 67 67 67 68 70 72 74 73 73 72 73 73 72 72 71 70 69 68 67 66 66 64 62 61 62 61 65 71 72 72 73 73
19 17 21 20 20 20 18 14 14 15 14 13 14 16 14 14 22 28 27 25 26 27 24 25 26 28 33 34 37 39 41 44 46 49 51 54 58 59 60 61 62 62 63 65 64 65 64 65 65 66 67 67 66 66 67 67 68 69 70 72 73 73 73 73 73 73 73 72 71 70 68 65 65 64 64 65 61 59 60 62 64 69 72 73 72 72
28 25 22 22 21 18 16 14 13 15 13 11 12 14 15 12 15 26 28 25 23 23 23 26 25 27 28 31 36 38 40 42 45 48 50 51 58 58 60 59 62 62 63 64 64 65 65 66 66 66 67 67 65 66 66 66 67 69 71 73 74 74 73 73 74 74 73 73 72 71 68 65 65 61 63 66 66 63 64 64 64 67 71 74 73 72
27 27 26 24 21 18 16 16 16 14 14 13 12 13 16 14 11 15 22 23 24 23 25 27 30 31 30 32 36 38 38 39 43 47 49 52 56 59 59 58 61 62 63 63 64 64 65 65 66 66 67 67 66 65 66 67 68 69 71 73 74 74 74 73 74 74 74 73 72 72 69 67 66 64 63 66 67 65 67 68 67 71 71 73 74 73
26 28 27 25 23 18 18 18 17 15 14 16 14 25 23 20 14 9 12 20 25 28 27 27 27 29 29 30 31 38 37 37 41 46 45 51 53 58 58 59 59 62 63 63 64 65 65 66 66 66 66 67 66 66 68 68 68 69 71 73 74 74 74 74 74 74 74 73 73 72 71 70 68 67 66 66 68 68 71 70 71 71 73 72 73 73
20 32 31 27 25 23 21 20 20 18 17 17 16 17 22 21 18 14 11 17 24 25 27 24 24 25 24 28 29 31 34 37 40 44 44 48 51 54 57 58 58 60 62 63 64 64 65 66 66 66 66 68 67 67 67 67 68 69 70 72 74 74 74 74 74 74 74 73 73 73 72 72 71 70 69 68 71 71 72 71 70 71 72 72 72 72
20 22 26 26 29 28 25 22 22 22 20 19 16 15 21 23 23 23 20 21 19 20 27 24 23 24 22 26 29 32 33 35 36 38 44 44 49 52 56 55 56 59 62 63 63 63 65 66 67 66 67 68 68 67 67 67 68 69 70 72 73 74 74 74 74 74 73 73 73 73 73 73 72 72 70 70 71 72 73 71 70 71 72 72 71 73
17 18 23 25 30 28 27 25 23 23 22 20 18 19 20 20 28 26 24 21 20 19 22 21 23 24 25 29 29 27 30 34 37 34 37 43 45 52 53 56 56 57 60 62 64 64 64 65 66 66 67 69 69 68 68 67 67 69 70 72 73 74 74 74 74 74 74 73 73 73 73 73 73 73 72 72 71 72 72 71 70 72 72 73 72 72
12 17 18 20 22 29 27 24 23 22 22 20 19 20 21 18 25 26 25 26 23 22 20 21 23 21 23 24 29 28 30 32 35 37 35 41 44 51 53 56 55 57 59 61 62 63 65 66 66 67 67 68 68 68 67 68 69 69 70 72 73 74 74 74 74 74 73 73 73 74 73 73 73 73 73 72 71 71 72 71 70 70 69 71 71 70
10 13 16 18 18 26 27 24 23 21 21 20 19 18 21 22 23 26 25 22 22 24 24 23 20 26 22 23 23 27 28 33 35 35 38 39 41 47 49 51 53 55 58 61 62 62 63 65 67 66 67 67 68 68 67 67 69 70 70 72 73 74 74 74 74 74 73 73 73 74 73 73 73 73 72 72 71 72 72 70 70 71 68 68 70 70
15 14 22 19 21 23 26 26 24 22 21 21 19 19 19 19 23 23 25 23 23 23 22 26 23 24 25 31 31 28 23 26 30 34 36 38 38 42 45 47 49 52 55 58 60 62 64 66 67 66 66 67 68 69 68 68 69 69 71 72 73 73 74 74 74 73 73 73 73 74 74 74 74 74 73 73 73 72 72 73 72 72 72 70 69 72
18 14 20 25 25 24 24 26 25 23 20 22 20 19 19 20 20 24 28 25 26 27 26 28 27 26 26 26 27 27 25 26 28 28 28 30 34 42 42 44 48 50 53 57 59 61 64 64 66 66 67 66 67 67 68 69 70 71 71 71 73 74 74 74 74 73 74 74 74 74 74 74 74 73 73 71 72 70 72 74 73 72 72 72 72 72
22 22 22 23 22 24 27 25 26 25 24 21 21 21 21 21 23 25 22 26 24 23 26 23 23 25 25 24 24 23 23 21 23 25 25 30 29 33 38 42 47 49 51 55 60 62 63 63 65 65 65 65 66 67 68 70 70 71 71 71 72 73 73 73 73 73 73 74 74 74 74 74 74 73 72 72 72 72 72 73 74 73 72 72 71 71
23 19 17 19 23 21 27 28 26 26 27 25 22 24 21 21 22 27 27 24 22 22 22 21 20 19 22 26 24 22 20 19 22 25 24 23 26 28 32 39 46 48 49 54 57 60 61 62 63 65 64 64 66 68 68 68 68 69 70 70 70 71 71 72 71 72 73 73 72 73 74 74 74 73 73 72 73 73 72 72 72 72 72 73 73 74
23 20 20 20 21 23 26 26 24 24 24 25 27 26 24 24 24 26 27 30 30 23 25 23 19 21 24 23 21 24 25 24 21 23 20 20 25 26 30 31 39 46 48 51 55 58 60 61 61 62 63 63 64 66 66 67 67 67 68 70 70 70 71 72 72 72 72 72 72 72 73 74 75 74 73 73 73 72 72 72 72 72 71 73 73 73
23 27 21 20 24 25 24 23 22 23 22 23 24 25 26 24 25 25 25 27 27 27 25 26 22 24 26 23 20 24 27 29 26 26 27 25 25 23 28 30 38 44 45 45 50 55 58 61 60 61 62 62 63 65 65 65 66 66 67 68 68 70 69 70 70 70 72 72 72 73 73 72 74 73 73 72 72 73 73 73 73 72 72 73 73 73
26 25 23 24 21 21 21 21 23 22 22 22 22 23 24 25 24 24 26 26 24 25 26 25 25 31 24 23 22 22 25 23 26 27 27 28 26 30 28 33 41 42 46 46 44 50 54 60 61 61 62 62 62 63 64 64 65 65 66 66 67 67 68 68 68 70 72 72 72 72 72 72 72 73 73 72 72 73 72 73 73 73 74 72 74 74
28 30 28 20 22 23 19 21 25 28 28 27 26 22 24 24 26 26 24 24 26 26 24 25 25 29 32 29 27 24 23 18 22 22 23 22 27 27 29 30 37 42 45 45 46 45 51 59 61 61 63 63 63 63 63 64 64 64 65 66 66 66 67 67 67 69 72 72 72 72 72 72 72 73 73 71 71 70 71 72 73 73 73 72 72 74
33 28 26 25 28 26 27 26 26 27 26 25 26 27 24 24 24 25 26 28 26 28 27 26 28 27 29 36 32 26 32 27 32 27 30 23 21 26 30 32 39 45 52 49 46 44 53 59 62 63 63 63 63 64 64 64 64 64 65 65 65 65 65 66 67 68 71 71 71 71 72 72 72 71 71 70 70 70 70 70 71 73 72 72 70 72
27 29 27 25 27 25 23 23 22 25 26 25 23 25 28 26 26 26 30 33 31 27 24 27 25 26 29 34 35 30 26 24 26 26 27 29 32 30 29 33 38 50 54 49 49 52 56 58 61 64 64 66 65 62 64 64 64 64 65 64 64 64 64 66 67 67 69 70 70 70 71 71 70 71 71 70 69 69 70 69 69 71 72 71 71 71
27 29 33 27 23 20 18 17 20 25 24 25 26 25 28 28 29 29 28 32 28 34 35 29 27 31 34 38 35 34 30 31 28 26 26 27 32 29 38 48 51 50 58 58 56 56 56 60 63 65 66 66 64 62 65 66 64 64 64 64 64 64 65 65 66 67 68 69 69 71 71 71 70 70 71 70 69 69 69 69 69 70 71 71 71 71
30 30 31 32 31 27 29 37 32 31 29 26 25 25 27 27 28 30 32 31 29 33 32 35 33 31 32 31 35 32 30 24 31 41 41 42 44 41 48 47 41 50 57 58 60 58 62 64 65 66 67 64 63 63 63 64 64 63 65 66 64 65 65 67 67 68 68 69 69 70 70 70 71 71 70 71 70 69 69 69 68 68 70 71 71 71
33 27 27 32 31 31 31 32 31 30 28 27 26 26 26 27 29 30 30 30 37 33 29 34 37 32 30 33 35 39 47 56 55 57 57 57 58 57 56 58 57 42 50 55 57 59 61 64 65 67 67 65 63 63 63 64 64 64 65 65 65 65 65 66 68 68 69 70 70 71 70 70 72 72 72 72 73 72 70 70 69 70 71 72 72 70
27 23 21 25 25 26 26 26 27 27 27 28 27 26 26 27 28 30 31 31 34 33 30 36 38 35 32 30 46 53 56 57 56 58 59 60 58 61 62 60 56 49 45 48 58 61 62 61 66 68 67 66 64 63 64 63 64 65 66 66 66 64 65 68 68 69 68 70 71 72 72 72 72 73 73 73 73 73 72 72 72 72 72 73 73 71
31 24 24 22 23 24 25 25 26 27 26 27 27 27 27 26 27 28 30 31 31 38 37 35 39 38 34 46 52 55 57 56 57 59 60 61 59 63 62 61 58 57 56 50 52 57 62 63 66 69 69 68 65 65 63 64 65 64 64 65 64 66 65 67 68 69 69 70 71 72 73 73 74 74 74 74 74 75 74 73 73 73 73 73 73 73
27 24 25 24 27 26 22 24 25 25 25 26 27 26 25 25 26 27 30 31 33 33 32 34 36 37 44 53 54 55 57 57 56 59 59 61 61 61 61 61 61 62 63 64 66 55 60 63 64 68 69 69 67 65 64 64 65 64 63 64 64 66 66 66 69 69 69 70 71 72 73 74 74 74 75 75 75 75 75 74 74 74 74 74 74 74
27 25 24 24 23 23 25 25 25 25 25 25 26 26 26 25 26 28 32 37 36 35 37 35 36 35 38 52 53 53 54 56 57 58 59 60 61 62 62 62 63 64 64 64 66 67 65 57 61 64 67 66 65 65 64 66 65 64 63 64 65 64 64 66 68 68 71 70 72 73 74 73 74 75 75 75 75 76 76 75 75 75 75 74 74 75
27 26 21 20 20 22 22 26 26 26 24 23 24 25 27 27 28 44 45 45 44 47 45 37 35 49 50 52 51 53 53 54 57 59 60 61 63 62 62 62 62 63 64 66 66 67 66 62 56 63 64 64 63 63 63 65 64 65 65 66 66 66 65 66 67 69 71 71 72 74 75 75 75 75 75 76 76 76 76 76 75 75 74 73 74 74
30 27 24 25 22 24 26 29 29 26 23 22 28 28 27 25 39 43 43 43 44 45 45 47 48 48 49 49 49 51 52 56 60 62 62 60 60 59 58 59 60 61 63 64 65 66 67 66 61 56 63 65 64 61 63 65 64 65 65 65 67 66 67 68 69 71 71 72 73 74 75 75 75 75 76 76 76 76 76 75 75 74 74 73 74 75
27 28 25 30 24 22 25 30 30 25 23 31 37 34 29 27 45 43 44 43 44 45 45 45 45 46 47 47 49 51 53 53 57 62 57 55 55 55 55 56 58 60 62 64 66 66 68 68 64 57 58 62 62 63 63 64 64 65 64 66 66 67 69 69 70 72 72 72 73 75 75 75 75 76 76 76 76 76 76 75 75 75 74 72 73 74
26 25 26 27 27 25 26 26 25 24 37 41 43 43 47 42 44 43 44 44 45 44 46 46 46 46 47 47 48 51 53 53 58 60 55 53 53 53 53 54 56 57 60 64 66 67 68 67 64 55 54 62 62 61 62 63 64 64 64 64 65 66 68 70 71 71 72 73 73 74 75 75 75 76 76 76 76 76 75 75 76 75 74 73 72 73
28 28 26 23 30 23 24 25 26 34 36 43 43 45 44 44 44 43 43 43 44 44 45 45 45 44 44 46 47 50 52 54 56 62 52 51 51 51 52 52 53 56 61 65 65 66 68 68 64 58 57 60 61 60 61 62 63 63 63 63 65 68 67 69 71 71 73 73 73 73 74 74 74 75 75 75 75 75 75 75 75 75 75 73 72 71
30 26 28 27 26 27 24 26 27 27 27 36 41 41 42 42 43 44 46 43 44 42 44 45 44 44 44 45 47 49 52 56 55 57 51 49 49 49 50 51 53 57 62 65 67 67 68 65 62 59 57 61 62 61 62 63 64 65 65 64 65 66 67 68 70 71 73 72 72 73 74 74 74 74 74 75 75 75 74 74 74 74 74 73 71 70
29 30 32 29 26 29 28 25 26 26 28 39 40 41 40 41 45 46 44 43 43 42 43 43 42 43 43 45 46 49 54 54 52 51 48 47 47 48 49 51 53 57 63 66 65 65 67 67 64 59 61 63 61 61 64 64 64 64 66 66 66 67 68 68 69 70 72 72 72 73 74 73 74 74 74 75 74 74 74 74 74 74 74 72 72 71
29 29 31 30 28 26 26 26 25 28 30 39 41 41 41 41 44 45 39 39 43 42 42 43 42 42 42 45 46 48 48 48 47 47 46 46 46 47 49 51 53 57 65 66 65 67 68 70 66 62 61 62 64 63 66 64 65 66 66 67 66 66 68 69 70 71 71 72 72 73 74 73 75 74 74 75 75 74 74 73 73 73 73 72 72 71
29 30 32 26 24 25 28 26 28 29 38 40 39 40 43 44 47 40 36 41 43 43 43 42 42 41 42 43 44 44 46 47 47 48 47 47 46 47 49 50 52 58 64 66 66 69 69 68 65 62 61 63 66 63 64 65 65 67 69 68 68 67 67 69 70 71 73 73 71 71 73 73 73 73 74 74 74 73 73 73 72 73 73 71 71 71
31 31 32 31 25 24 26 26 26 31 40 39 39 42 44 43 39 39 41 44 44 43 43 42 43 42 42 42 43 43 44 45 46 47 46 47 47 47 49 49 51 58 63 67 69 68 68 66 66 64 61 65 65 66 66 66 67 69 70 68 67 68 67 69 71 71 72 73 72 71 72 73 73 73 73 74 74 74 73 73 73 73 73 71 72 73
31 28 27 26 29 28 30 28 29 26 38 39 41 39 41 39 38 41 43 41 43 42 42 42 42 42 42 42 43 43 44 44 45 45 46 47 45 46 48 49 51 55 61 65 68 68 66 69 66 63 62 63 64 63 64 65 69 70 70 69 70 69 69 70 71 72 73 73 71 72 73 73 74 74 74 74 74 74 73 73 73 73 74 74 74 74
37 31 31 34 38 29 27 27 29 36 37 41 40 36 41 43 45 44 42 41 42 42 42 42 42 43 43 42 42 43 44 45 46 45 47 46 46 46 49 49 51 54 58 62 67 68 69 69 72 71 64 65 66 66 67 68 70 71 71 71 72 70 70 71 72 74 73 73 73 72 73 73 73 75 74 74 74 74 74 74 74 74 74 75 74 73
37 34 35 31 37 34 31 34 37 39 40 40 42 42 44 45 46 46 43 42 42 41 43 42 43 43 44 43 43 43 44 45 45 45 46 46 45 46 49 50 51 55 56 60 65 68 69 68 70 71 69 67 68 68 70 70 72 73 73 73 73 72 72 72 73 74 74 73 72 73 74 74 74 74 74 74 74 74 74 74 74 74 75 76 75 74
40 39 40 39 37 40 41 41 38 37 38 42 45 45 44 44 44 44 43 42 42 42 42 41 42 43 44 44 43 44 44 45 46 45 46 47 46 47 50 49 51 54 54 57 62 67 69 69 68 69 71 72 70 69 71 71 72 74 74 74 74 73 73 74 75 75 75 75 74 74 74 74 74 75 74 75 74 75 75 75 74 74 75 74 73 73
38 40 39 35 38 35 31 37 37 37 38 43 42 42 44 44 45 46 44 42 43 43 43 43 43 46 46 46 45 44 45 46 46 46 46 48 47 48 48 50 52 52 53 56 61 67 68 71 70 70 71 72 72 72 71 72 73 74 75 76 74 73 75 76 76 75 75 75 75 75 75 75 75 74 75 75 74 75 75 75 75 75 75 74 73 74
35 40 38 37 37 35 35 38 38 38 39 42 44 41 41 42 44 45 44 43 44 44 44 44 44 45 46 44 46 46 45 47 45 45 45 46 47 48 49 51 51 50 52 55 61 66 67 69 71 71 71 71 73 74 75 75 76 76 77 76 75 75 76 76 76 75 75 75 75 74 75 75 75 75 74 74 74 74 73 74 74 74 75 74 74 73
40 41 32 36 35 38 36 37 37 38 39 41 40 40 42 42 43 44 44 43 43 44 44 44 45 46 45 45 46 47 46 48 46 45 45 46 47 47 48 50 50 51 52 53 59 64 67 68 69 71 71 71 72 73 74 75 76 76 77 76 76 76 76 76 75 75 74 73 73 73 75 73 75 74 73 74 75 76 70 75 75 74 74 75 74 73
36 34 38 36 31 31 32 36 39 34 35 38 38 40 42 42 41 42 43 42 43 44 45 45 45 46 46 46 46 46 47 47 48 47 46 47 47 48 48 49 50 49 49 52 57 62 65 67 68 69 70 72 73 73 73 73 74 74 74 75 76 77 76 76 75 75 75 73 72 72 73 73 72 73 72 73 74 71 63 50 45 51 64 74 61 53
35 37 37 32 32 31 37 39 40 40 40 41 40 41 42 42 42 42 42 42 43 43 45 45 45 45 46 48 47 48 46 47 49 48 47 47 47 47 47 49 50 49 48 51 55 59 63 66 66 68 69 70 71 71 72 73 73 74 74 76 76 76 76 77 75 74 74 75 73 72 74 73 72 74 75 74 74 73 71 69 64 44 42 48 51 47